Tracking 31027 objects as of 19-Jul-2025
HD Live streaming from Space Station
objects crossing your sky now

STARLINK-5006

Track STARLINK-5006 now!
10-day predictions
STARLINK-5006 is classified as:


NORAD ID: 55422
Int'l Code: 2023-014AH
Perigee: 576.9 km
Apogee: 581.5 km
Inclination: 70.0 °
Period: 96.1 minutes
Semi major axis: 6950 km
RCS: Unknown
Launch date: January 31, 2023
Source: United States (US)
Launch site: AIR FORCE WESTERN TEST RANGE (AFWTR)
Your satellite tracking list
FENGYUN 1C DEB
Track 1 satellite(s)




NASA's NSSDC Master Catalog

Two Line Element Set (TLE):
1 55422U 23014AH  25199.61559425 -.00000159  00000-0 -55356-5 0  9997
2 55422  70.0006 314.4964 0003329 269.7227  90.3551 14.98329368136507
Source of the keplerian elements: AFSPC